{"data":{"norad_id":67300,"intl_designator":"2025-314A","name":"TIANHUI 7","alt_names":[],"object_type":"PAYLOAD","status":"ACTIVE","operator":null,"country":"PRC","launch_date":"2025-12-30","launch_site_code":"JSC","launch_vehicle":null,"mission":null,"orbit_class":"UNKNOWN","rcs_meters":null,"size_class":null,"mass_kg":null,"dimensions":null,"purposes":[],"wikipedia_slug":null,"has_3d_model":false,"image_url":null,"decayed_at":null,"tle_current":{"epoch":"2026-05-25T03:28:31.637568Z","epoch_age_seconds":62251,"freshness":"FRESH","line1":"1 67300U 25314A   26145.14481062  .00005649  00000+0  22484-3 0  9991","line2":"2 67300  97.4016 221.0361 0003815  45.7489 314.4062 15.25647358 22273","mean_motion":15.25647358,"eccentricity":0.0003815,"inclination_deg":97.4016,"raan_deg":221.0361,"arg_perigee_deg":45.7489,"mean_anomaly_deg":314.4062,"bstar":0.00022484,"rev_number":2227,"period_min":94.386162860579,"perigee_km":486.22247703425,"apogee_km":491.46198218644,"semimajor_km":6866.9792296103,"source":"CELESTRAK","updated_at":"2026-05-25T13:38:06.886031Z"}}}